[[{"header":{"parameterUnit":"m.s-1","parameterCategory":1,"la1":30.2991,"la2":30.254,"lo1":-89.0895,"lo2":-89.0444,"dy":0.0017,"dx":0.0017,"nx":28,"ny":28,"refTime":"2025-04-05T09:00:00:Z","depth":0,"parameterNumber":2,"parameterNumberName":"U-component_of_WINDS"},"data":[0,0,0,0,0,0,0,0,0,0,0,0,0,0,0,0,0,0,0,0,0,0,0,0,0,0,0,0,0,0,0,0,0,0,0,0,0,0,0,0,0,0,0,0,0,0,0,0,0,0,0,0,0,0,0,0,0,0,1.7461,1.7461,0,1.7467,1.7467,1.7467,1.7427,1.7426,1.7425,1.7424,1.7429,1.743,1.7431,0,0,0,0,0,0,0,0,0,0,0,0,0,1.7416,1.7417,1.7461,1.7461,1.7461,1.7467,1.7467,1.7467,1.7427,1.7426,1.7424,1.7423,1.7429,1.743,1.7431,0,0,0,0,0,0,0,0,0,0,0,0,0,1.743,1.7417,1.7461,1.7442,1.7441,1.7467,1.7467,1.7467,1.7427,1.7426,1.7424,1.7422,1.7428,1.743,1.7432,1.7476,0,0,1.7437,1.7438,0,0,0,0,0,0,0,0,1.7429,1.7431,1.7445,1.7444,1.7442,1.7444,1.7453,1.747,1.7428,1.7432,1.7424,1.7422,1.7435,1.7437,1.7441,1.7477,1.7477,1.7437,1.7438,1.7439,1.744,0,0,0,0,0,0,0,1.7428,1.7431,1.7463,1.7445,1.7443,1.7433,1.7433,1.7456,1.7443,1.7432,1.7429,1.743,1.7434,1.744,1.7441,1.7477,1.7437,1.7439,1.744,1.7441,1.7547,1.7549,0,0,0,0,0,0,1.743,1.743,1.7463,1.7464,1.7431,1.7435,1.7435,1.7445,1.7443,1.7441,1.7432,1.7428,1.7437,1.7439,1.7441,1.7492,1.7439,1.7441,1.7442,1.7546,1.7548,1.755,0,0,0,0,0,0,1.7429,1.7433,1.7463,1.7446,1.7449,1.7438,1.7449,1.7446,1.7451,1.7443,1.744,1.7439,1.7436,1.7439,1.7467,1.7492,1.7442,1.7443,1.7543,1.7546,1.7549,1.7595,0,0,0,0,0,0,1.7428,1.7433,1.745,1.7447,1.745,1.749,1.7451,1.7448,1.7455,1.745,1.7449,1.7448,1.7435,1.7465,1.7469,1.7493,1.7445,1.7541,1.7545,1.7548,1.7591,1.7599,1.7605,0,0,0,0,0,1.7426,1.7463,1.7451,1.7455,1.7472,1.7491,1.7493,1.7478,1.7457,1.7474,1.7468,1.7448,1.7489,1.7468,1.7473,1.7497,1.754,1.7544,1.7548,1.7588,1.7597,1.7605,0,0,0,0,0,0,1.747,1.7462,1.7449,1.7486,1.749,1.7484,1.7505,1.7488,1.7498,1.7494,1.7474,1.7474,1.7506,1.7505,1.7483,1.754,1.751,1.7515,1.7539,1.7548,1.7555,1.7554,1.7446,0,0,0,0,0,1.7484,1.75,1.7493,1.7527,1.7529,1.7517,1.7525,1.7513,1.7516,1.7517,1.7513,1.7516,1.753,1.7539,1.7551,1.7591,1.7589,1.761,1.7617,1.7623,1.7627,1.7647,1.7655,1.7563,1.7563,1.7563,0,0,1.7513,1.7511,1.7523,1.7535,1.7536,1.7553,1.7518,1.7538,1.7551,1.752,1.7546,1.7544,1.7546,1.758,1.7595,1.758,1.7652,1.7628,1.7633,1.7634,1.7651,1.766,1.7668,1.7565,1.7565,1.7564,0,0,1.7574,1.7575,1.7602,1.7603,1.7605,1.7597,1.7604,1.7601,1.7598,1.7624,1.7601,1.7615,1.7639,1.7641,1.7646,1.7707,1.7688,1.7711,1.7748,1.7767,1.7774,1.7781,1.7801,1.7809,1.7716,1.7716,1.7716,0,1.7609,1.7634,1.7618,1.7639,1.7645,1.7617,1.7644,1.7647,1.7653,1.7657,1.764,1.7669,1.7668,1.7702,1.7717,1.7722,1.7728,1.7711,1.7775,1.7781,1.7786,1.7806,1.7813,1.7719,1.7718,1.7718,1.7718,0,1.7677,1.7695,1.7717,1.7722,1.7731,1.7755,1.7741,1.7752,1.7739,1.7732,1.7758,1.7757,1.7768,1.7775,1.7763,1.7807,1.7797,1.7778,1.7748,1.7798,1.7816,1.7823,1.7722,1.7721,1.7721,1.772,0,0,1.7766,1.7762,1.777,1.7771,1.7771,1.7784,1.7807,1.7817,1.7825,1.7831,1.7848,1.7869,1.785,1.7855,1.7843,1.786,1.7907,1.7839,1.7838,1.785,1.7953,1.7966,1.7975,1.7895,1.7896,1.7897,1.7952,0,1.7824,1.7862,1.7847,1.7886,1.7901,1.7875,1.7894,1.7896,1.789,1.7902,1.7896,1.791,1.7886,1.7888,1.7904,1.7898,1.7927,1.7894,1.791,1.7911,1.7909,1.7985,1.7999,1.8051,1.7959,1.7961,1.7961,0,1.7897,1.7904,1.7945,1.794,1.7946,1.7964,1.7971,1.7983,1.7985,1.7979,1.7984,1.7968,1.7989,1.796,1.7988,1.7966,1.7972,1.797,1.7971,1.7971,1.7938,1.7985,1.8068,1.8075,1.7972,1.7971,1.7971,0,1.7956,1.7976,1.8002,1.8004,1.8001,1.8013,1.8012,1.8012,1.8019,1.8025,1.8029,1.8038,1.8043,1.805,1.8037,1.8017,1.8066,1.8036,1.8062,1.8062,1.8072,1.8071,1.8155,1.8079,1.8078,1.8078,1.8078,0,1.8022,1.8047,1.8028,1.8044,1.8071,1.8053,1.8081,1.8077,1.8077,1.8091,1.807,1.8084,1.8066,1.8078,1.8067,1.8091,1.8094,1.809,1.8086,1.8091,1.8091,1.8093,1.8089,1.808,1.808,1.8079,1.8079,0,1.8091,1.808,1.8106,1.81,1.8099,1.8119,1.8114,1.8128,1.8121,1.8139,1.8143,1.8131,1.8144,1.8132,1.8144,1.8137,1.8169,1.8161,1.8168,1.8165,1.8191,1.8188,1.8278,1.8288,1.8206,1.8207,1.8208,0,1.8133,1.8152,1.8147,1.8155,1.8155,1.8169,1.8175,1.8159,1.8166,1.8168,1.8182,1.8193,1.8201,1.8223,1.8216,1.8225,1.8216,1.8247,1.8218,1.8221,1.8215,1.8213,1.8214,1.8253,1.8254,1.8255,1.8255,0,1.8208,1.8201,1.8211,1.8219,1.8227,1.8232,1.8236,1.8244,1.8227,1.8236,1.8249,1.8255,1.8267,1.8278,1.8285,1.8284,1.8266,1.8265,1.8271,1.8275,1.8277,1.8274,1.8183,1.8262,1.8262,1.8261,1.8261,1.826,1.8264,1.8279,1.8278,1.8289,1.829,1.8294,1.8306,1.83,1.831,1.8319,1.8309,1.8324,1.8324,1.8331,1.8332,1.8344,1.8331,1.834,1.8342,1.8344,1.8347,1.8277,1.8345,1.8345,1.8345,1.8345,1.8344,0,1.8336,1.8334,1.8345,1.835,1.8359,1.8342,1.8345,1.8354,1.8367,1.8369,1.8377,1.8391,1.8401,1.8395,1.8403,1.8414,1.8406,1.8416,1.8415,1.8414,1.8359,1.8352,1.8422,1.8422,1.8422,1.8422,1.8422,1.8422,1.8375,1.8398,1.8391,1.8415,1.8412,1.8427,1.843,1.8433,1.8434,1.845,1.8459,1.8454,1.8452,1.846,1.8469,1.8467,1.847,1.8483,1.8478,1.8426,1.8418,1.8411,1.8404,1.8485,1.8485,1.8532,1.8533,1.8533]},{"header":{"parameterUnit":"m.s-1","parameterCategory":1,"la1":30.2991,"la2":30.254,"lo1":-89.0895,"lo2":-89.0444,"dy":0.0017,"dx":0.0017,"nx":28,"ny":28,"refTime":"2025-04-05T09:00:00:Z","depth":0,"parameterNumber":3,"parameterNumberName":"V-component_of_WINDS"},"data":[0,0,0,0,0,0,0,0,0,0,0,0,0,0,0,0,0,0,0,0,0,0,0,0,0,0,0,0,0,0,0,0,0,0,0,0,0,0,0,0,0,0,0,0,0,0,0,0,0,0,0,0,0,0,0,0,0,0,9.179,9.1791,0,9.1888,9.1889,9.189,9.185,9.1847,9.1845,9.1843,9.1938,9.1942,9.1947,0,0,0,0,0,0,0,0,0,0,0,0,0,9.1567,9.1571,9.179,9.1791,9.1793,9.1887,9.1889,9.189,9.185,9.1847,9.1844,9.1842,9.1936,9.1942,9.1947,0,0,0,0,0,0,0,0,0,0,0,0,0,9.1664,9.1573,9.179,9.1784,9.1785,9.1887,9.1889,9.189,9.1851,9.1847,9.1844,9.184,9.1934,9.1941,9.1948,9.2061,0,0,9.197,9.1973,0,0,0,0,0,0,0,0,9.1659,9.1672,9.1784,9.1785,9.1785,9.1853,9.1845,9.1947,9.1851,9.1825,9.1843,9.1839,9.1912,9.1921,9.1946,9.2065,9.2069,9.197,9.1975,9.1978,9.198,0,0,0,0,0,0,0,9.1652,9.1668,9.1829,9.1785,9.1787,9.1776,9.1786,9.1864,9.1887,9.1827,9.1825,9.1837,9.1912,9.194,9.1948,9.2071,9.197,9.1976,9.1981,9.1983,9.229,9.2294,0,0,0,0,0,0,9.1646,9.1662,9.1825,9.1831,9.1712,9.1783,9.1794,9.1835,9.1886,9.189,9.184,9.1835,9.1929,9.194,9.1952,9.2089,9.1977,9.1984,9.1988,9.2286,9.2291,9.2295,0,0,0,0,0,0,9.1641,9.166,9.1822,9.1746,9.1766,9.179,9.1837,9.1838,9.1866,9.1895,9.1899,9.1865,9.1927,9.1942,9.2035,9.2091,9.1987,9.1994,9.2281,9.2287,9.2293,9.2362,0,0,0,0,0,0,9.1635,9.1659,9.1702,9.1748,9.177,9.1904,9.184,9.1843,9.1879,9.1873,9.1919,9.1924,9.1926,9.2025,9.2042,9.2099,9.1999,9.2276,9.2284,9.2291,9.2355,9.237,9.2383,0,0,0,0,0,9.1627,9.1716,9.1705,9.1725,9.1825,9.1907,9.192,9.1922,9.1884,9.1928,9.1947,9.1922,9.2083,9.2035,9.2054,9.2114,9.2273,9.2282,9.229,9.2349,9.2367,9.2382,0,0,0,0,0,0,9.1674,9.1722,9.171,9.1817,9.1859,9.19,9.1955,9.1941,9.1993,9.1985,9.1984,9.1994,9.2091,9.2112,9.2057,9.2227,9.2172,9.2185,9.221,9.2227,9.2241,9.2234,9.2005,0,0,0,0,0,9.1698,9.1762,9.1799,9.189,9.1912,9.1931,9.1966,9.1965,9.2007,9.2024,9.205,9.2091,9.2151,9.219,9.2247,9.2358,9.2369,9.2409,9.2423,9.2434,9.2445,9.2508,9.2527,9.2324,9.2324,9.2324,0,0,9.1745,9.178,9.1819,9.1901,9.1933,9.1999,9.1945,9.2016,9.2065,9.2034,9.2125,9.2146,9.2192,9.2296,9.2342,9.2315,9.2504,9.2446,9.2454,9.2459,9.2519,9.2539,9.2556,9.233,9.2329,9.2328,0,0,9.1867,9.1899,9.1979,9.2014,9.2064,9.2077,9.2096,9.2141,9.2155,9.2246,9.2225,9.2283,9.2385,9.242,9.2451,9.259,9.257,9.2608,9.268,9.2741,9.2757,9.2771,9.2822,9.284,9.262,9.262,9.262,0,9.1919,9.2019,9.2022,9.2096,9.2133,9.2111,9.2193,9.2225,9.2291,9.2317,9.2286,9.2418,9.2447,9.2559,9.2594,9.2619,9.2642,9.2603,9.2755,9.2769,9.2782,9.2831,9.285,9.2624,9.2624,9.2623,9.2623,0,9.2082,9.2151,9.221,9.2278,9.2321,9.2398,9.2413,9.2457,9.2452,9.2468,9.2562,9.2597,9.2662,9.2689,9.2683,9.2802,9.2784,9.2754,9.2699,9.2806,9.2852,9.287,9.2631,9.2629,9.2628,9.2627,0,0,9.2233,9.2304,9.2325,9.2357,9.2413,9.2467,9.2544,9.2609,9.2647,9.2694,9.2759,9.2849,9.2823,9.2859,9.2858,9.2912,9.3022,9.2876,9.2877,9.2902,9.3156,9.3178,9.3199,9.3009,9.3013,9.3016,9.3152,0,9.2359,9.2496,9.2503,9.2627,9.2693,9.2674,9.2742,9.2784,9.2801,9.2858,9.2877,9.2941,9.2902,9.2923,9.2976,9.2997,9.3073,9.2987,9.307,9.3072,9.3059,9.3223,9.3246,9.3373,9.317,9.3173,9.3175,0,9.2524,9.258,9.2711,9.2761,9.2789,9.2849,9.2912,9.2967,9.3014,9.3023,9.3065,9.3058,9.3137,9.308,9.319,9.3132,9.3166,9.3182,9.3187,9.3194,9.313,9.3235,9.3413,9.3433,9.3203,9.3201,9.3199,0,9.2622,9.273,9.2824,9.2851,9.2911,9.2954,9.2981,9.3026,9.3066,9.312,9.3146,9.3208,9.3242,9.329,9.3299,9.3257,9.341,9.3353,9.342,9.342,9.3452,9.345,9.3639,9.3474,9.3474,9.3474,9.3473,0,9.2763,9.2844,9.2869,9.2926,9.3018,9.3025,9.3115,9.3139,9.3179,9.3241,9.3228,9.3286,9.3295,9.3356,9.3364,9.3455,9.3469,9.3479,9.348,9.348,9.3479,9.3502,9.3494,9.3479,9.3478,9.3477,9.3476,0,9.2887,9.2907,9.3008,9.3059,9.3073,9.3139,9.3181,9.3236,9.3254,9.3332,9.3351,9.3378,9.3449,9.3464,9.3546,9.3552,9.366,9.3652,9.3645,9.3644,9.371,9.3704,9.392,9.395,9.3766,9.3768,9.3769,0,9.2976,9.3039,9.3097,9.3139,9.3168,9.3235,9.3277,9.3287,9.3331,9.3392,9.344,9.351,9.3567,9.3681,9.3707,9.3771,9.3765,9.3837,9.3774,9.3774,9.3767,9.3763,9.377,9.3848,9.385,9.3852,9.3853,0,9.3131,9.3138,9.32,9.3266,9.3317,9.3369,9.3419,9.3453,9.347,9.3521,9.3594,9.3638,9.3725,9.3795,9.386,9.3887,9.3874,9.3873,9.3892,9.3892,9.3886,9.3892,9.3678,9.3867,9.3866,9.3865,9.3864,9.3864,9.324,9.3296,9.3347,9.3417,9.3456,9.3504,9.3559,9.3585,9.3647,9.372,9.3722,9.3803,9.3851,9.3938,9.3969,9.4032,9.401,9.4037,9.4044,9.405,9.4057,9.3877,9.4044,9.4043,9.4043,9.4043,9.4042,0,9.3395,9.3428,9.3492,9.3564,9.3619,9.3604,9.3659,9.3706,9.3778,9.3825,9.3882,9.3968,9.4037,9.407,9.4138,9.4183,9.4178,9.42,9.4197,9.4204,9.4072,9.405,9.4203,9.4203,9.4203,9.4203,9.4203,9.4203,9.3482,9.3577,9.3592,9.3707,9.3738,9.3819,9.3852,9.3896,9.3934,9.4031,9.4089,9.4111,9.4154,9.4225,9.4288,9.4296,9.4322,9.4347,9.4352,9.4229,9.4213,9.4197,9.4176,9.4353,9.4353,9.4478,9.448,9.448]}]]